Location: All Nations United Methodist Church
(33.0215°N, 96.7483°W)
Time: 15:22:57
(UTC+00:00)

Cosmos 2369 Rocket - Pass Details

Date: 24 January 2021
Orbit: 830 x 851 km, 71.0° (Epoch: 06 March)

Event Time Altitude Azimuth Distance (km) Brightness Sun altitude
Rises 12:35:58 0° 354° (N) 3,381 5.1 -10.9°
Reaches altitude 10° 12:39:00 10° 10° (N) 2,441 4.6 -10.3°
Maximum altitude 12:43:13 22° 60° (ENE) 1,758 4.4 -9.4°
Drops below altitude 10° 12:47:26 10° 109° (ESE) 2,431 6.3 -8.6°
Sets 12:50:25 0° 125° (SE) 3,362 7.0 -8.0°
